User: anonymous   Login
Location: Linz
(48.3300°N, 14.3000°E)
Time: 06:17:46
(UTC+01:00)
Language:

Hubble Space Telescope - Orbit

View from above orbital plane
View from above orbital plane
View from above satellite
View from above satellite

Ground track
Ground track

The orbit data is extracted from the following two-line orbital elements,

1 20580U 90037B   18048.53803323 +.00000492 +00000-0 +19185-4 0  9995
2 20580 028.4686 186.0219 0002556 295.9814 137.3173 15.08980283327375
Epoch (UTC): 17 February 2018 12:54:46
Eccentricity: 0.0002556
inclination: 28.4686°
perigee height: 537 km
apogee height: 541 km
right ascension of ascending node: 186.0219°
argument of perigee: 295.9814°
revolutions per day: 15.08980283
mean anomaly at epoch: 137.3173°
orbit number at epoch: 32737

The dashed part of the orbit path shows where the satellite is in the earth's shadow,  

DLR